,,,PA_Meas_PMT16A,,PR_Meas_QMR101_102,,RH_Meas_QMH101,,SR_Meas_QMS101,,TA_Meas_QMH101,,GenWind,,GenWind,
date,time,status,PA,status,PR,status,RH,status,SR,status,TA,status,DirAvg,status,SpdAvg,
2011-01-16, 00:00:04,VALID,998.911,VALID,0,VALID,91.9064,VALID,0,VALID,22.4738,VALID,344,VALID,0.398438,
2011-01-16, 00:01:04,VALID,998.886,VALID,0,VALID,91.914,VALID,0,VALID,22.4136,VALID,344,VALID,0.537109,
2011-01-16, 00:02:04,VALID,998.893,VALID,0,VALID,91.9751,VALID,0,VALID,22.4136,VALID,344,VALID,0.66875,
2011-01-16, 00:03:04,VALID,998.873,VALID,0,VALID,92.0819,VALID,0,VALID,22.4526,VALID,344,VALID,0.704687,
2011-01-16, 00:04:04,VALID,998.875,VALID,0,VALID,92.1963,VALID,0,VALID,22.4916,VALID,344,VALID,0.541797,
2011-01-16, 00:05:04,VALID,998.88,VALID,0,VALID,92.2497,VALID,0,VALID,22.4916,VALID,344,VALID,0.499219,
2011-01-16, 00:06:04,VALID,998.852,VALID,0,VALID,92.3413,VALID,0,VALID,22.5501,VALID,344,VALID,0.618359,
2011-01-16, 00:07:04,VALID,998.825,VALID,0,VALID,92.4328,VALID,0,VALID,22.6087,VALID,3,VALID,0.867969,
2011-01-16, 00:08:04,VALID,998.808,VALID,0,VALID,92.471,VALID,0,VALID,22.6477,VALID,16,VALID,0.967969,
2011-01-16, 00:09:04,VALID,998.795,VALID,0,VALID,92.5473,VALID,0,VALID,22.6867,VALID,16,VALID,1.03008,
2011-01-16, 00:10:04,VALID,998.795,VALID,0,VALID,92.5854,VALID,0,VALID,22.6867,VALID,16,VALID,0.939062,
2011-01-16, 00:11:04,VALID,998.792,VALID,0,VALID,92.6083,VALID,0,VALID,22.6867,VALID,16,VALID,0.816406,
2011-01-16, 00:12:04,VALID,998.77,VALID,0,VALID,92.6388,VALID,0,VALID,22.6672,VALID,16,VALID,0.657812,
2011-01-16, 00:13:04,VALID,998.748,VALID,0,VALID,92.6465,VALID,0,VALID,22.6477,VALID,16,VALID,0.524219,
2011-01-16, 00:14:04,VALID,998.742,VALID,0,VALID,92.6465,VALID,0,VALID,22.6477,VALID,16,VALID,0.180469,
2011-01-16, 00:15:04,VALID,998.727,VALID,0,VALID,92.6694,VALID,0,VALID,22.6282,VALID,16,VALID,0.00234375,
2011-01-16, 00:16:04,VALID,998.748,VALID,0,VALID,92.6846,VALID,0,VALID,22.6087,VALID,16,VALID,0.303906,
2011-01-16, 00:17:04,VALID,998.695,VALID,0,VALID,92.6694,VALID,0,VALID,22.6087,VALID,16,VALID,0.3125,
2011-01-16, 00:18:04,VALID,998.705,VALID,0,VALID,92.7075,VALID,0,VALID,22.6282,VALID,16,VALID,0.228516,
2011-01-16, 00:19:04,VALID,998.667,VALID,0,VALID,92.7075,VALID,0,VALID,22.5874,VALID,16,VALID,0.328906,
2011-01-16, 00:20:04,VALID,998.681,VALID,0,VALID,92.6999,VALID,0.112286,VALID,22.5306,VALID,16,VALID,0.405859,
2011-01-16, 00:21:04,VALID,998.674,VALID,0,VALID,92.6923,VALID,0,VALID,22.4916,VALID,16,VALID,0.389062,
2011-01-16, 00:22:04,VALID,998.654,VALID,0,VALID,92.6999,VALID,0,VALID,22.4721,VALID,16,VALID,0.482422,
2011-01-16, 00:23:04,VALID,998.661,VALID,0,VALID,92.7075,VALID,0,VALID,22.4331,VALID,16,VALID,0.453906,
2011-01-16, 00:24:04,VALID,998.629,VALID,0,VALID,92.6923,VALID,0,VALID,22.3746,VALID,16,VALID,0.434375,
2011-01-16, 00:25:04,VALID,998.635,VALID,0,VALID,92.6999,VALID,0,VALID,22.3144,VALID,16,VALID,0.417969,
2011-01-16, 00:26:04,VALID,998.658,VALID,0,VALID,92.7075,VALID,0,VALID,22.3763,VALID,16,VALID,0.483203,
2011-01-16, 00:27:04,VALID,998.647,VALID,0,VALID,92.7304,VALID,0,VALID,22.3746,VALID,16,VALID,0.498047,
2011-01-16, 00:28:04,VALID,998.627,VALID,0,VALID,92.7457,VALID,0,VALID,22.4331,VALID,16,VALID,0.605078,
2011-01-16, 00:29:04,VALID,998.618,VALID,0,VALID,92.7533,VALID,0,VALID,22.4526,VALID,16,VALID,0.590234,
2011-01-16, 00:30:05,VALID,998.587,VALID,0,VALID,92.7762,VALID,0,VALID,22.4331,VALID,16,VALID,0.572656,
2011-01-16, 00:31:05,VALID,998.564,VALID,0,VALID,92.7762,VALID,0,VALID,22.4136,VALID,16,VALID,0.551172,
2011-01-16, 00:32:05,VALID,998.585,VALID,0,VALID,92.7533,VALID,0.112286,VALID,22.3551,VALID,16,VALID,0.499609,
2011-01-16, 00:33:05,VALID,998.562,VALID,0,VALID,92.738,VALID,0,VALID,22.3356,VALID,16,VALID,0.475391,
2011-01-16, 00:34:05,VALID,998.524,VALID,0,VALID,92.7075,VALID,0,VALID,22.3161,VALID,16,VALID,0.392578,
2011-01-16, 00:35:05,VALID,998.488,VALID,0,VALID,92.7304,VALID,0,VALID,22.2966,VALID,16,VALID,0.380469,
2011-01-16, 00:36:05,VALID,998.498,VALID,0,VALID,92.7304,VALID,0,VALID,22.3356,VALID,16,VALID,0.471484,
2011-01-16, 00:37:05,VALID,998.496,VALID,0,VALID,92.738,VALID,0,VALID,22.3551,VALID,16,VALID,0.481641,
2011-01-16, 00:38:05,VALID,998.444,VALID,0,VALID,92.7609,VALID,0,VALID,22.3729,VALID,16,VALID,0.533984,
2011-01-16, 00:39:05,VALID,998.47,VALID,0,VALID,92.7762,VALID,0,VALID,22.3941,VALID,16,VALID,0.429297,
2011-01-16, 00:40:05,VALID,998.442,VALID,0,VALID,92.7914,VALID,0,VALID,22.4136,VALID,16,VALID,0.333594,
2011-01-16, 00:41:05,VALID,998.418,VALID,0,VALID,92.7991,VALID,0,VALID,22.4136,VALID,16,VALID,0.279297,
2011-01-16, 00:42:05,VALID,998.443,VALID,0,VALID,92.7914,VALID,0,VALID,22.3941,VALID,16,VALID,0.2875,
2011-01-16, 00:43:05,VALID,998.44,VALID,0,VALID,92.8067,VALID,0,VALID,22.3746,VALID,16,VALID,0.217578,
2011-01-16, 00:44:05,VALID,998.466,VALID,0,VALID,92.8372,VALID,0,VALID,22.3551,VALID,16,VALID,0.341406,
2011-01-16, 00:45:05,VALID,998.457,VALID,0,VALID,92.8372,VALID,0,VALID,22.3161,VALID,16,VALID,0.373047,
2011-01-16, 00:46:05,VALID,998.46,VALID,0,VALID,92.8525,VALID,0,VALID,22.2966,VALID,16,VALID,0.396484,
2011-01-16, 00:47:05,VALID,998.458,VALID,0,VALID,92.8448,VALID,0,VALID,22.3161,VALID,16,VALID,0.542188,
2011-01-16, 00:48:05,VALID,998.481,VALID,0,VALID,92.8677,VALID,0,VALID,22.3356,VALID,16,VALID,0.600391,
2011-01-16, 00:49:05,VALID,998.456,VALID,0,VALID,92.8525,VALID,0,VALID,22.3356,VALID,82,VALID,0.880469,
2011-01-16, 00:50:05,VALID,998.451,VALID,0,VALID,92.8754,VALID,0,VALID,22.3551,VALID,83,VALID,0.949609,
2011-01-16, 00:51:05,VALID,998.456,VALID,0,VALID,92.8754,VALID,0,VALID,22.3746,VALID,83,VALID,0.927734,
2011-01-16, 00:52:05,VALID,998.452,VALID,0,VALID,92.8754,VALID,0,VALID,22.3551,VALID,83,VALID,0.834766,
2011-01-16, 00:53:05,VALID,998.448,VALID,0,VALID,92.8754,VALID,0,VALID,22.3746,VALID,83,VALID,0.677344,
2011-01-16, 00:54:05,VALID,998.43,VALID,0,VALID,92.8906,VALID,0,VALID,22.4526,VALID,83,VALID,0.485547,
2011-01-16, 00:55:05,VALID,998.38,VALID,0,VALID,92.8983,VALID,0,VALID,22.4721,VALID,83,VALID,0.378516,
2011-01-16, 00:56:05,VALID,998.37,VALID,0,VALID,92.8906,VALID,0,VALID,22.4916,VALID,83,VALID,0.0753906,
2011-01-16, 00:57:05,VALID,998.341,VALID,0,VALID,92.8906,VALID,0,VALID,22.5306,VALID,82,VALID,0.29375,
2011-01-16, 00:58:05,VALID,998.301,VALID,0,VALID,92.8906,VALID,0.112286,VALID,22.4899,VALID,82,VALID,0.277734,
2011-01-16, 00:59:05,VALID,998.293,VALID,0,VALID,92.883,VALID,0,VALID,22.4721,VALID,82,VALID,0.255859,
2011-01-16, 01:00:05,VALID,998.252,VALID,0,VALID,92.883,VALID,0,VALID,22.4136,VALID,82,VALID,0.321875,
2011-01-16, 01:01:05,VALID,998.241,VALID,0,VALID,92.822,VALID,0,VALID,22.2966,VALID,82,VALID,0.295312,
2011-01-16, 01:02:05,VALID,998.216,VALID,0,VALID,92.822,VALID,0,VALID,22.2576,VALID,82,VALID,0.434375,
2011-01-16, 01:03:05,VALID,998.189,VALID,0,VALID,92.8067,VALID,0,VALID,22.2966,VALID,82,VALID,0.485547,
2011-01-16, 01:04:05,VALID,998.148,VALID,0,VALID,92.7838,VALID,0,VALID,22.2559,VALID,82,VALID,0.296484,
2011-01-16, 01:05:05,VALID,998.131,VALID,0,VALID,92.7609,VALID,0,VALID,22.2576,VALID,82,VALID,0.101953,
2011-01-16, 01:06:05,VALID,998.12,VALID,0,VALID,92.7762,VALID,0,VALID,22.199,VALID,82,VALID,0.169531,
2011-01-16, 01:07:05,VALID,998.118,VALID,0,VALID,92.7533,VALID,0,VALID,22.16,VALID,82,VALID,0.241016,
2011-01-16, 01:08:05,VALID,998.1,VALID,0,VALID,92.7457,VALID,0,VALID,22.1795,VALID,82,VALID,0.329688,
2011-01-16, 01:09:05,VALID,998.061,VALID,0,VALID,92.7457,VALID,0,VALID,22.1795,VALID,82,VALID,0.401953,
2011-01-16, 01:10:05,VALID,998,VALID,0,VALID,92.7685,VALID,0,VALID,22.1795,VALID,82,VALID,0.375781,
2011-01-16, 01:11:05,VALID,997.971,VALID,0,VALID,92.7762,VALID,0,VALID,22.1795,VALID,82,VALID,0.488281,
2011-01-16, 01:12:05,VALID,997.944,VALID,0,VALID,92.7838,VALID,0,VALID,22.1405,VALID,82,VALID,0.637891,
2011-01-16, 01:13:05,VALID,997.891,VALID,0,VALID,92.8143,VALID,0,VALID,22.16,VALID,82,VALID,0.603516,
2011-01-16, 01:14:05,VALID,997.892,VALID,0,VALID,92.822,VALID,0,VALID,22.16,VALID,66,VALID,0.720703,
2011-01-16, 01:15:05,VALID,997.873,VALID,0,VALID,92.8448,VALID,0,VALID,22.199,VALID,35,VALID,0.803125,
2011-01-16, 01:16:05,VALID,997.835,VALID,0,VALID,92.8448,VALID,0,VALID,22.16,VALID,35,VALID,0.486719,
2011-01-16, 01:17:05,VALID,997.844,VALID,0,VALID,92.8525,VALID,0,VALID,22.082,VALID,35,VALID,0.474609,
2011-01-16, 01:18:05,VALID,997.787,VALID,0,VALID,92.8677,VALID,0,VALID,22.0218,VALID,35,VALID,0.513672,
2011-01-16, 01:19:05,VALID,997.782,VALID,0,VALID,92.883,VALID,0,VALID,22.0625,VALID,35,VALID,0.686328,
2011-01-16, 01:20:05,VALID,997.793,VALID,0,VALID,92.9059,VALID,0,VALID,22.1015,VALID,35,VALID,0.823047,
2011-01-16, 01:21:05,VALID,997.769,VALID,0,VALID,92.944,VALID,0,VALID,22.1015,VALID,35,VALID,0.927734,
2011-01-16, 01:22:05,VALID,997.77,VALID,0,VALID,92.944,VALID,0,VALID,22.0625,VALID,35,VALID,0.921484,
2011-01-16, 01:23:05,VALID,997.777,VALID,0,VALID,92.9669,VALID,0,VALID,22.1015,VALID,35,VALID,0.740234,
2011-01-16, 01:24:05,VALID,997.783,VALID,0,VALID,92.9745,VALID,0,VALID,22.082,VALID,62,VALID,0.904297,
2011-01-16, 01:25:05,VALID,997.781,VALID,0,VALID,92.9898,VALID,0,VALID,22.043,VALID,62,VALID,0.948047,
2011-01-16, 01:26:05,VALID,997.786,VALID,0,VALID,92.9745,VALID,0,VALID,21.9845,VALID,62,VALID,0.928125,
2011-01-16, 01:27:05,VALID,997.784,VALID,0,VALID,92.9898,VALID,0,VALID,21.9633,VALID,62,VALID,0.987891,
2011-01-16, 01:28:05,VALID,997.797,VALID,0,VALID,92.9822,VALID,0,VALID,21.9455,VALID,62,VALID,0.852734,
2011-01-16, 01:29:05,VALID,997.795,VALID,0,VALID,92.9898,VALID,0,VALID,21.9455,VALID,62,VALID,0.732031,
2011-01-16, 01:30:05,VALID,997.764,VALID,0,VALID,92.9898,VALID,0,VALID,21.9065,VALID,62,VALID,0.680078,
2011-01-16, 01:31:05,VALID,997.767,VALID,0,VALID,93.0127,VALID,0,VALID,21.926,VALID,62,VALID,0.722656,
2011-01-16, 01:32:05,VALID,997.743,VALID,0,VALID,93.0127,VALID,0,VALID,21.926,VALID,62,VALID,0.603906,
2011-01-16, 01:33:05,VALID,997.707,VALID,0,VALID,93.0127,VALID,0,VALID,21.9243,VALID,62,VALID,0.439063,
2011-01-16, 01:34:05,VALID,997.713,VALID,0,VALID,93.0127,VALID,0,VALID,21.8853,VALID,62,VALID,0.339844,
2011-01-16, 01:35:05,VALID,997.695,VALID,0,VALID,93.0203,VALID,0,VALID,21.887,VALID,62,VALID,0.268359,
2011-01-16, 01:36:05,VALID,997.677,VALID,0,VALID,93.0127,VALID,0,VALID,21.848,VALID,62,VALID,0.327344,
2011-01-16, 01:37:05,VALID,997.641,VALID,0,VALID,93.0432,VALID,0,VALID,21.809,VALID,62,VALID,0.528906,
2011-01-16, 01:38:05,VALID,997.67,VALID,0,VALID,93.0203,VALID,0,VALID,21.848,VALID,62,VALID,0.600781,
2011-01-16, 01:39:05,VALID,997.668,VALID,0,VALID,93.0508,VALID,0,VALID,21.848,VALID,62,VALID,0.621094,
2011-01-16, 01:40:05,VALID,997.696,VALID,0,VALID,93.0737,VALID,0,VALID,21.9048,VALID,62,VALID,0.619922,
2011-01-16, 01:41:05,VALID,997.693,VALID,0,VALID,93.0661,VALID,0,VALID,21.9438,VALID,62,VALID,0.532422,
2011-01-16, 01:42:05,VALID,997.674,VALID,0,VALID,93.0737,VALID,0,VALID,21.9633,VALID,62,VALID,0.369531,
2011-01-16, 01:43:05,VALID,997.689,VALID,0,VALID,93.1119,VALID,0,VALID,21.965,VALID,62,VALID,0.326953,
2011-01-16, 01:44:05,VALID,997.692,VALID,0,VALID,93.0814,VALID,0,VALID,21.965,VALID,62,VALID,0.182812,
2011-01-16, 01:45:05,VALID,997.703,VALID,0,VALID,93.0966,VALID,0,VALID,21.965,VALID,62,VALID,0.191797,
2011-01-16, 01:46:05,VALID,997.69,VALID,0,VALID,93.0966,VALID,0,VALID,21.9455,VALID,62,VALID,0.413672,
2011-01-16, 01:47:05,VALID,997.69,VALID,0,VALID,93.1119,VALID,0,VALID,22.004,VALID,116,VALID,0.833984,
2011-01-16, 01:48:05,VALID,997.694,VALID,0,VALID,93.1424,VALID,0,VALID,22.1015,VALID,116,VALID,0.783984,
2011-01-16, 01:49:05,VALID,997.669,VALID,0,VALID,93.15,VALID,0,VALID,22.199,VALID,116,VALID,0.860156,
2011-01-16, 01:50:05,VALID,997.651,VALID,0,VALID,93.1424,VALID,0,VALID,22.199,VALID,121,VALID,1.01875,
2011-01-16, 01:51:05,VALID,997.656,VALID,0,VALID,93.15,VALID,0,VALID,22.199,VALID,121,VALID,0.994531,
2011-01-16, 01:52:05,VALID,997.652,VALID,0,VALID,93.1653,VALID,0,VALID,22.2186,VALID,121,VALID,0.925391,
2011-01-16, 01:53:05,VALID,997.628,VALID,0,VALID,93.1729,VALID,0,VALID,22.2966,VALID,135,VALID,0.707812,
2011-01-16, 01:54:05,VALID,997.646,VALID,0,VALID,93.1653,VALID,0,VALID,22.3161,VALID,135,VALID,0.826563,
2011-01-16, 01:55:05,VALID,997.636,VALID,0,VALID,93.1424,VALID,0,VALID,22.2966,VALID,131,VALID,0.683594,
2011-01-16, 01:56:05,VALID,997.632,VALID,0,VALID,93.1424,VALID,0,VALID,22.2754,VALID,131,VALID,0.655078,
2011-01-16, 01:57:05,VALID,997.618,VALID,0,VALID,93.1577,VALID,0,VALID,22.2559,VALID,131,VALID,0.779297,
2011-01-16, 01:58:05,VALID,997.614,VALID,0,VALID,93.1195,VALID,0,VALID,22.2576,VALID,131,VALID,0.451172,
2011-01-16, 01:59:05,VALID,997.646,VALID,0,VALID,93.1271,VALID,0,VALID,22.2576,VALID,131,VALID,0.251953,
2011-01-16, 02:00:05,VALID,997.629,VALID,0,VALID,93.1195,VALID,0,VALID,22.2381,VALID,131,VALID,0.146484,
2011-01-16, 02:01:05,VALID,997.627,VALID,0,VALID,93.1043,VALID,0,VALID,22.1974,VALID,118,VALID,0.385938,
2011-01-16, 02:02:05,VALID,997.595,VALID,0,VALID,93.089,VALID,0,VALID,22.199,VALID,97,VALID,1.08984,
2011-01-16, 02:03:05,VALID,997.604,VALID,0,VALID,93.0661,VALID,0,VALID,22.2381,VALID,104,VALID,1.35195,
2011-01-16, 02:04:05,VALID,997.586,VALID,0,VALID,93.0356,VALID,0,VALID,22.2576,VALID,106,VALID,0.866406,
2011-01-16, 02:05:05,VALID,997.616,VALID,0,VALID,93.0356,VALID,0,VALID,22.2771,VALID,106,VALID,0.508203,
2011-01-16, 02:06:05,VALID,997.621,VALID,0,VALID,92.9898,VALID,0,VALID,22.2771,VALID,106,VALID,0.407813,
2011-01-16, 02:07:05,VALID,997.629,VALID,0,VALID,92.9898,VALID,0,VALID,22.2771,VALID,106,VALID,0.303125,
2011-01-16, 02:08:05,VALID,997.662,VALID,0,VALID,92.9669,VALID,0,VALID,22.2771,VALID,106,VALID,0.371875,
2011-01-16, 02:09:05,VALID,997.628,VALID,0,VALID,92.9059,VALID,0,VALID,22.2559,VALID,106,VALID,0.366016,
2011-01-16, 02:10:05,VALID,997.666,VALID,0,VALID,92.9059,VALID,0,VALID,22.2771,VALID,106,VALID,0.153906,
2011-01-16, 02:11:05,VALID,997.656,VALID,0,VALID,92.8525,VALID,0,VALID,22.2771,VALID,106,VALID,0.348828,
2011-01-16, 02:12:05,VALID,997.635,VALID,0,VALID,92.8296,VALID,0,VALID,22.2576,VALID,106,VALID,0.366016,
2011-01-16, 02:13:05,VALID,997.632,VALID,0,VALID,92.8067,VALID,0,VALID,22.2771,VALID,106,VALID,0.553516,
2011-01-16, 02:14:05,VALID,997.627,VALID,0,VALID,92.7609,VALID,0,VALID,22.2983,VALID,106,VALID,0.271875,
2011-01-16, 02:15:05,VALID,997.626,VALID,0,VALID,92.7304,VALID,0,VALID,22.2771,VALID,95,VALID,0.867188,
2011-01-16, 02:16:05,VALID,997.585,VALID,0,VALID,92.677,VALID,0,VALID,22.2576,VALID,97,VALID,0.625781,
2011-01-16, 02:17:05,VALID,997.561,VALID,0,VALID,92.6083,VALID,0,VALID,22.2771,VALID,97,VALID,0.703906,
2011-01-16, 02:18:05,VALID,997.533,VALID,0,VALID,92.5702,VALID,0,VALID,22.2966,VALID,97,VALID,1.02148,
2011-01-16, 02:19:05,VALID,997.492,VALID,0,VALID,92.4939,VALID,0,VALID,22.2966,VALID,97,VALID,0.765234,
2011-01-16, 02:20:05,VALID,997.499,VALID,0,VALID,92.4252,VALID,0,VALID,22.2966,VALID,95,VALID,0.833594,
2011-01-16, 02:21:05,VALID,997.481,VALID,0,VALID,92.326,VALID,0.112286,VALID,22.2966,VALID,92,VALID,0.694141,
2011-01-16, 02:22:05,VALID,997.449,VALID,0,VALID,92.2268,VALID,0,VALID,22.2966,VALID,64,VALID,0.828125,
2011-01-16, 02:23:05,VALID,997.449,VALID,0,VALID,92.12,VALID,0,VALID,22.2966,VALID,58,VALID,0.623047,
2011-01-16, 02:24:05,VALID,997.408,VALID,0,VALID,92.0056,VALID,0,VALID,22.2381,VALID,53,VALID,0.510156,
2011-01-16, 02:25:05,VALID,997.402,VALID,0,VALID,91.8911,VALID,0.112286,VALID,22.1779,VALID,35,VALID,0.569922,
2011-01-16, 02:26:05,VALID,997.391,VALID,0,VALID,91.8606,VALID,0,VALID,22.16,VALID,35,VALID,0.428125,
2011-01-16, 02:27:05,VALID,997.364,VALID,0,VALID,91.7996,VALID,0,VALID,22.121,VALID,35,VALID,0.258594,
2011-01-16, 02:28:05,VALID,997.343,VALID,0,VALID,91.8148,VALID,0,VALID,22.082,VALID,35,VALID,0.429688,
2011-01-16, 02:29:05,VALID,997.346,VALID,0,VALID,91.8911,VALID,0.112286,VALID,22.0803,VALID,35,VALID,0.473437,
2011-01-16, 02:30:05,VALID,997.313,VALID,0,VALID,92.0285,VALID,0,VALID,22.121,VALID,35,VALID,0.508594,
2011-01-16, 02:31:05,VALID,997.318,VALID,0,VALID,92.12,VALID,0,VALID,22.0998,VALID,35,VALID,0.544922,
2011-01-16, 02:32:05,VALID,997.344,VALID,0,VALID,92.2345,VALID,0,VALID,22.121,VALID,35,VALID,0.525391,
2011-01-16, 02:33:05,VALID,997.323,VALID,0,VALID,92.2879,VALID,0,VALID,22.121,VALID,35,VALID,0.524609,
2011-01-16, 02:34:05,VALID,997.309,VALID,0,VALID,92.3413,VALID,0,VALID,22.1015,VALID,35,VALID,0.557813,
2011-01-16, 02:35:05,VALID,997.303,VALID,0,VALID,92.3871,VALID,0.112286,VALID,22.082,VALID,35,VALID,0.691797,
2011-01-16, 02:36:05,VALID,997.308,VALID,0,VALID,92.4023,VALID,0,VALID,22.004,VALID,35,VALID,0.703516,
2011-01-16, 02:37:05,VALID,997.27,VALID,0,VALID,92.3794,VALID,0,VALID,21.9845,VALID,35,VALID,0.746484,
2011-01-16, 02:38:05,VALID,997.249,VALID,0,VALID,92.4176,VALID,0,VALID,21.9845,VALID,35,VALID,0.807813,
2011-01-16, 02:39:05,VALID,997.219,VALID,0,VALID,92.4328,VALID,0,VALID,21.9455,VALID,35,VALID,0.745703,
2011-01-16, 02:40:05,VALID,997.219,VALID,0,VALID,92.4176,VALID,0,VALID,21.9065,VALID,35,VALID,0.739062,
2011-01-16, 02:41:05,VALID,997.24,VALID,0,VALID,92.3947,VALID,0,VALID,21.848,VALID,35,VALID,0.965234,
2011-01-16, 02:42:05,VALID,997.217,VALID,0,VALID,92.3947,VALID,0,VALID,21.809,VALID,35,VALID,0.939844,
2011-01-16, 02:43:05,VALID,997.228,VALID,0,VALID,92.4328,VALID,0,VALID,21.848,VALID,35,VALID,0.832812,
2011-01-16, 02:44:05,VALID,997.217,VALID,0,VALID,92.471,VALID,0,VALID,21.8285,VALID,35,VALID,0.852344,
2011-01-16, 02:45:05,VALID,997.239,VALID,0,VALID,92.4939,VALID,0,VALID,21.8285,VALID,35,VALID,0.740625,
2011-01-16, 02:46:05,VALID,997.202,VALID,0,VALID,92.5473,VALID,0,VALID,21.8675,VALID,35,VALID,0.717578,
2011-01-16, 02:47:05,VALID,997.223,VALID,0,VALID,92.5778,VALID,0,VALID,21.8675,VALID,35,VALID,0.558594,
2011-01-16, 02:48:05,VALID,997.272,VALID,0,VALID,92.6083,VALID,0,VALID,21.887,VALID,35,VALID,0.43125,
2011-01-16, 02:49:05,VALID,997.261,VALID,0,VALID,92.616,VALID,0,VALID,21.8675,VALID,35,VALID,0.367578,
2011-01-16, 02:50:05,VALID,997.28,VALID,0,VALID,92.6388,VALID,0,VALID,21.8675,VALID,35,VALID,0.266797,
2011-01-16, 02:51:05,VALID,997.289,VALID,0,VALID,92.6236,VALID,0,VALID,21.848,VALID,35,VALID,0.126953,
2011-01-16, 02:52:05,VALID,997.291,VALID,0,VALID,92.6312,VALID,0,VALID,21.848,VALID,35,VALID,0.200391,
2011-01-16, 02:53:05,VALID,997.292,VALID,0,VALID,92.6312,VALID,0,VALID,21.8285,VALID,35,VALID,0,
2011-01-16, 02:54:05,VALID,997.289,VALID,0,VALID,92.6465,VALID,0,VALID,21.809,VALID,35,VALID,0,
2011-01-16, 02:55:05,VALID,997.27,VALID,0,VALID,92.6388,VALID,0,VALID,21.809,VALID,35,VALID,0,
2011-01-16, 02:56:05,VALID,997.267,VALID,0,VALID,92.6617,VALID,0,VALID,21.8496,VALID,35,VALID,0.272266,
2011-01-16, 02:57:05,VALID,997.26,VALID,0,VALID,92.6999,VALID,0,VALID,21.8285,VALID,35,VALID,0.348437,
2011-01-16, 02:58:05,VALID,997.242,VALID,0,VALID,92.7075,VALID,0,VALID,21.848,VALID,35,VALID,0.375781,
2011-01-16, 02:59:05,VALID,997.289,VALID,0,VALID,92.7304,VALID,0,VALID,21.8285,VALID,35,VALID,0.339844,
2011-01-16, 03:00:05,VALID,997.281,VALID,0,VALID,92.7304,VALID,0,VALID,21.848,VALID,35,VALID,0.344531,
2011-01-16, 03:01:05,VALID,997.284,VALID,0,VALID,92.7533,VALID,0,VALID,21.8268,VALID,35,VALID,0.234375,
2011-01-16, 03:02:05,VALID,997.265,VALID,0,VALID,92.7685,VALID,0,VALID,21.7878,VALID,35,VALID,0.110937,
2011-01-16, 03:03:05,VALID,997.25,VALID,0,VALID,92.7685,VALID,0,VALID,21.7505,VALID,35,VALID,0.31875,
2011-01-16, 03:04:05,VALID,997.267,VALID,0,VALID,92.8143,VALID,0,VALID,21.7505,VALID,49,VALID,0.412891,
2011-01-16, 03:05:05,VALID,997.263,VALID,0,VALID,92.8067,VALID,0,VALID,21.7505,VALID,49,VALID,0,
2011-01-16, 03:06:05,VALID,997.247,VALID,0,VALID,92.822,VALID,0,VALID,21.7521,VALID,49,VALID,0,
2011-01-16, 03:07:05,VALID,997.267,VALID,0,VALID,92.8143,VALID,0,VALID,21.7521,VALID,49,VALID,0,
2011-01-16, 03:08:05,VALID,997.256,VALID,0,VALID,92.8296,VALID,0,VALID,21.7521,VALID,49,VALID,0,
2011-01-16, 03:09:05,VALID,997.27,VALID,0,VALID,92.8601,VALID,0,VALID,21.731,VALID,49,VALID,0.0613281,
2011-01-16, 03:10:05,VALID,997.243,VALID,0,VALID,92.8906,VALID,0,VALID,21.7115,VALID,49,VALID,0.0171875,
2011-01-16, 03:11:05,VALID,997.29,VALID,0,VALID,92.883,VALID,0,VALID,21.7505,VALID,49,VALID,0.248047,
2011-01-16, 03:12:05,VALID,997.275,VALID,0,VALID,92.9135,VALID,0,VALID,21.77,VALID,49,VALID,0.170312,
2011-01-16, 03:13:04,VALID,997.288,VALID,0,VALID,92.9288,VALID,0,VALID,21.7895,VALID,49,VALID,0.167578,
2011-01-16, 03:14:04,VALID,997.306,VALID,0,VALID,92.9669,VALID,0,VALID,21.809,VALID,49,VALID,0.342969,
2011-01-16, 03:15:04,VALID,997.29,VALID,0,VALID,92.9745,VALID,0.112286,VALID,21.809,VALID,49,VALID,0.275391,
2011-01-16, 03:16:04,VALID,997.285,VALID,0,VALID,92.9898,VALID,0.112286,VALID,21.8073,VALID,49,VALID,0.322266,
2011-01-16, 03:17:04,VALID,997.26,VALID,0,VALID,93.0051,VALID,0,VALID,21.809,VALID,49,VALID,0.434375,
2011-01-16, 03:18:04,VALID,997.222,VALID,0,VALID,93.0051,VALID,0,VALID,21.809,VALID,49,VALID,0.369922,
2011-01-16, 03:19:04,VALID,997.252,VALID,0,VALID,93.028,VALID,0,VALID,21.809,VALID,49,VALID,0.366797,
2011-01-16, 03:20:04,VALID,997.227,VALID,0,VALID,93.0356,VALID,0,VALID,21.7895,VALID,49,VALID,0.258203,
2011-01-16, 03:21:04,VALID,997.25,VALID,0,VALID,93.0432,VALID,0,VALID,21.7505,VALID,49,VALID,0.166406,
2011-01-16, 03:22:04,VALID,997.231,VALID,0,VALID,93.0508,VALID,0,VALID,21.731,VALID,49,VALID,0.218359,
2011-01-16, 03:23:04,VALID,997.234,VALID,0,VALID,93.0737,VALID,0,VALID,21.731,VALID,49,VALID,0.162109,
2011-01-16, 03:24:04,VALID,997.234,VALID,0,VALID,93.089,VALID,0,VALID,21.731,VALID,49,VALID,0.40625,
2011-01-16, 03:25:04,VALID,997.234,VALID,0,VALID,93.089,VALID,0.112286,VALID,21.7505,VALID,49,VALID,0.272266,
2011-01-16, 03:26:04,VALID,997.233,VALID,0,VALID,93.1119,VALID,0,VALID,21.731,VALID,49,VALID,0.102344,
2011-01-16, 03:27:04,VALID,997.248,VALID,0,VALID,93.1119,VALID,0,VALID,21.7326,VALID,49,VALID,0,
2011-01-16, 03:28:04,VALID,997.265,VALID,0,VALID,93.1195,VALID,0,VALID,21.7343,VALID,49,VALID,0,
2011-01-16, 03:29:04,VALID,997.268,VALID,0,VALID,93.1424,VALID,0,VALID,21.7326,VALID,49,VALID,0,
2011-01-16, 03:30:04,VALID,997.292,VALID,0,VALID,93.1577,VALID,0,VALID,21.7521,VALID,49,VALID,0,
2011-01-16, 03:31:04,VALID,997.304,VALID,0,VALID,93.1653,VALID,0,VALID,21.7716,VALID,49,VALID,0,
2011-01-16, 03:32:04,VALID,997.316,VALID,0,VALID,93.1653,VALID,0,VALID,21.7911,VALID,49,VALID,0,
2011-01-16, 03:33:04,VALID,997.269,VALID,0,VALID,93.1653,VALID,0,VALID,21.7505,VALID,49,VALID,0,
2011-01-16, 03:34:04,VALID,997.293,VALID,0,VALID,93.1958,VALID,0,VALID,21.7521,VALID,49,VALID,0,
2011-01-16, 03:35:04,VALID,997.263,VALID,0,VALID,93.1805,VALID,0,VALID,21.731,VALID,49,VALID,0,
2011-01-16, 03:36:04,VALID,997.285,VALID,0,VALID,93.1882,VALID,0,VALID,21.731,VALID,49,VALID,0,
2011-01-16, 03:37:04,VALID,997.269,VALID,0,VALID,93.2034,VALID,0,VALID,21.7505,VALID,49,VALID,0.131641,
2011-01-16, 03:38:04,VALID,997.274,VALID,0,VALID,93.2263,VALID,0,VALID,21.7911,VALID,49,VALID,0.2625,
2011-01-16, 03:39:04,VALID,997.291,VALID,0,VALID,93.2034,VALID,0,VALID,21.8106,VALID,49,VALID,0.330859,
2011-01-16, 03:40:04,VALID,997.286,VALID,0,VALID,93.2263,VALID,0,VALID,21.8106,VALID,49,VALID,0.36875,
2011-01-16, 03:41:04,VALID,997.279,VALID,0,VALID,93.234,VALID,0,VALID,21.8496,VALID,49,VALID,0.444141,
2011-01-16, 03:42:04,VALID,997.301,VALID,0,VALID,93.2416,VALID,0,VALID,21.8301,VALID,49,VALID,0.452734,
2011-01-16, 03:43:04,VALID,997.32,VALID,0,VALID,93.2568,VALID,0,VALID,21.8285,VALID,49,VALID,0.39375,
2011-01-16, 03:44:04,VALID,997.309,VALID,0,VALID,93.2568,VALID,0,VALID,21.809,VALID,49,VALID,0.354297,
2011-01-16, 03:45:04,VALID,997.304,VALID,0,VALID,93.2645,VALID,0,VALID,21.809,VALID,49,VALID,0.349609,
2011-01-16, 03:46:04,VALID,997.309,VALID,0,VALID,93.2568,VALID,0,VALID,21.8496,VALID,49,VALID,0.365625,
2011-01-16, 03:47:04,VALID,997.314,VALID,0,VALID,93.2645,VALID,0,VALID,21.8887,VALID,49,VALID,0.191797,